Tracking 20037 objects as of 17-Nov-2019
Live streaming from Space Station
objects crossing your sky now

ECAMSAT

Track ECAMSAT now!
10-day predictions
ECAMSAT is classified as:


NORAD ID: 43019
Int'l Code: 1998-067NG
Perigee: 383.6 km
Apogee: 388.7 km
Inclination: 51.6 °
Period: 92.1 minutes
Semi major axis: 6757 km
RCS: Unknown
Launch date: November 20, 1998
Source: United States (US)
Launch site: TYURATAM MISSILE AND SPACE COMPLEX (TTMTR)

Uplink (MHz):
Downlink (MHz): 437.095
Beacon (MHz):
Mode: 1200bps AFSK
Call sign: KE6QLL
Status: Inactive

aabbcc
Your satellite tracking list
Your tracking list is empty




NASA's NSSDC Master Catalog

Two Line Element Set (TLE):
1 43019U 98067NG  19321.10972930  .00007643  00000-0  88302-4 0  9999
2 43019  51.6407 291.6732 0003815 330.6667  29.4113 15.62994973199396
Source of the keplerian elements: AMSAT